User: anonymous   Login
Location: Oshawa
(43.9000°N, 78.8670°W)
Time: 22:21:56
(UTC-05:00)
Language:

IDEFIX/ARIANE 42P - Orbit

View from above orbital plane
View from above orbital plane
View from above satellite
View from above satellite

Ground track
Ground track

The orbit data is extracted from the following two-line orbital elements,

1 27422U 02021B   16039.62848275  .00000035  00000-0  29970-4 0  9992
2 27422  98.2385  61.2587 0011163 261.8593  98.1324 14.29230047716035
Epoch (UTC): 08 February 2016 15:05:00
Eccentricity: 0.0011163
inclination: 98.2385°
perigee height: 786 km
apogee height: 802 km
right ascension of ascending node: 61.2587°
argument of perigee: 261.8593°
revolutions per day: 14.29230047
mean anomaly at epoch: 98.1324°
orbit number at epoch: 71603

The dashed part of the orbit path shows where the satellite is in the earth's shadow,  

DLR